Weather History for Durant, OK

Change the Weather History Date:

Wednesday, March 27, 2013

  Actual Average (KADM) Record (KADM)
Temperature  
Mean Temperature 50 °F -  
Max Temperature 68 °F 65 °F 84 °F (2008)
Min Temperature 33 °F 47 °F 33 °F (2009)
Degree Days  
Heating Degree Days 14    
Moisture  
Dew Point 32 °F    
Average Humidity 52    
Maximum Humidity 81    
Minimum Humidity 26    
Precipitation  
Precipitation 0.00 in - - ()
Sea Level Pressure  
Sea Level Pressure 30.22 in    
Wind  
Wind Speed 10 mph (SSE)    
Max Wind Speed 28 mph    
Max Gust Speed 31 mph    
Visibility 10 miles    
Events      
Averages and records for this station are not official NWS values.
T = Trace of Precipitation, MM = Missing Value Source: NWS Daily Summary

Daily Weather History Graph

Daily Weather History Graph

Search for Another Location

Airport:

Trip Planner

Search our weather history database for the weather conditions in past years. The results will help you decide how hot, cold, wet, or windy it might be!

Date:

Astronomy

Mar. 27, 2013 Rise Set
Actual Time 7:19 AM CDT 7:42 PM CDT
Civil Twilight 6:54 AM CDT 8:07 PM CDT
Nautical Twilight 6:25 AM CDT 8:37 PM CDT
Astronomical Twilight 5:55 AM CDT 9:07 PM CDT
Moon 8:23 PM CDT (3/27) 7:13 AM CDT (3/27)
Length of Visible Light 13h 13m
Length of Day
12h 23m
Full, 100% of the Moon is Illuminated
Mar 27
Full
Apr 2
Last Quarter
Apr 10
New
Apr 18
First Quarter
Apr 25
Full

Hourly Weather History & Observations

Time (CDT) Temp. Windchill Dew Point Humidity Pressure Visibility Wind Dir Wind Speed Gust Speed Precip Events Conditions
12:15 AM 37.4 °F 32.1 °F 26.6 °F 65% 30.32 in 10.0 mi SE 6.9 mph - N/A   Clear
12:35 AM 37.4 °F 32.1 °F 26.6 °F 65% 30.32 in 10.0 mi SSE 6.9 mph - N/A   Clear
12:55 AM 37.4 °F 32.1 °F 26.6 °F 65% 30.31 in 10.0 mi SSE 6.9 mph - N/A   Clear
1:15 AM 37.4 °F 31.4 °F 26.6 °F 65% 30.30 in 10.0 mi SSE 8.1 mph - N/A   Clear
1:55 AM 37.4 °F 31.4 °F 28.4 °F 70% 30.28 in 10.0 mi SSE 8.1 mph - N/A   Clear
2:15 AM 37.4 °F - 28.4 °F 70% 30.28 in 10.0 mi Calm Calm - N/A   Clear
2:35 AM 37.4 °F - 28.4 °F 70% 30.27 in 10.0 mi Calm Calm - N/A   Clear
2:55 AM 37.4 °F 31.4 °F 28.4 °F 70% 30.27 in 10.0 mi South 8.1 mph - N/A   Clear
3:15 AM 35.6 °F 29.9 °F 28.4 °F 75% 30.27 in 10.0 mi SSE 6.9 mph - N/A   Clear
3:35 AM 35.6 °F 30.7 °F 28.4 °F 75% 30.26 in 10.0 mi South 5.8 mph - N/A   Clear
3:55 AM 33.8 °F 28.6 °F 28.4 °F 81% 30.26 in 10.0 mi South 5.8 mph - N/A   Clear
4:15 AM 33.8 °F 27.7 °F 28.4 °F 81% 30.26 in 10.0 mi South 6.9 mph - N/A   Clear
4:55 AM 33.8 °F 28.6 °F 26.6 °F 75% 30.26 in 10.0 mi SSE 5.8 mph - N/A   Clear
5:15 AM 33.8 °F 26.4 °F 26.6 °F 75% 30.26 in 10.0 mi SSE 9.2 mph - N/A   Clear
5:35 AM 35.6 °F 29.2 °F 26.6 °F 70% 30.26 in 10.0 mi SSE 8.1 mph - N/A   Clear
5:55 AM 33.8 °F 27.7 °F 26.6 °F 75% 30.27 in 10.0 mi SSE 6.9 mph - N/A   Clear
6:15 AM 33.8 °F 27.7 °F 26.6 °F 75% 30.27 in 10.0 mi SE 6.9 mph - N/A   Clear
6:35 AM 33.8 °F 27.0 °F 26.6 °F 75% 30.27 in 10.0 mi SSE 8.1 mph - N/A   Clear
6:55 AM 33.8 °F 28.6 °F 28.4 °F 81% 30.28 in 10.0 mi South 5.8 mph - N/A   Clear
7:15 AM 33.8 °F 27.7 °F 28.4 °F 81% 30.29 in 10.0 mi South 6.9 mph - N/A   Clear
7:35 AM 33.8 °F 28.6 °F 28.4 °F 81% 30.30 in 10.0 mi South 5.8 mph - N/A   Clear
7:55 AM 33.8 °F 27.7 °F 28.4 °F 81% 30.29 in 10.0 mi SSE 6.9 mph - N/A   Clear
8:15 AM 35.6 °F 28.6 °F 30.2 °F 81% 30.29 in 10.0 mi SSE 9.2 mph - N/A   Clear
8:35 AM 41.0 °F 35.2 °F 30.2 °F 65% 30.30 in 10.0 mi SSE 9.2 mph - N/A   Clear
8:55 AM 42.8 °F 36.2 °F 30.2 °F 61% 30.29 in 10.0 mi South 12.7 mph - N/A   Clear
9:15 AM 44.6 °F 37.4 °F 30.2 °F 57% 30.29 in 10.0 mi South 16.1 mph - N/A   Clear
9:35 AM 46.4 °F 40.1 °F 30.2 °F 53% 30.30 in 10.0 mi South 15.0 mph 20.7 mph N/A   Clear
9:55 AM 50.0 °F - 28.4 °F 43% 30.30 in 10.0 mi South 16.1 mph 20.7 mph N/A   Clear
10:15 AM 51.8 °F - 28.4 °F 41% 30.30 in 10.0 mi SSW 15.0 mph 21.9 mph N/A   Clear
10:35 AM 53.6 °F - 28.4 °F 38% 30.30 in 10.0 mi South 15.0 mph 21.9 mph N/A   Clear
11:15 AM 57.2 °F - 30.2 °F 36% 30.29 in 10.0 mi South 17.3 mph 25.3 mph N/A   Clear
11:35 AM 59.0 °F - 30.2 °F 34% 30.27 in 10.0 mi South 19.6 mph 24.2 mph N/A   Clear
12:15 PM 60.8 °F - 32.0 °F 34% 30.27 in 10.0 mi South 17.3 mph 25.3 mph N/A   Clear
12:35 PM 60.8 °F - 32.0 °F 34% 30.25 in 10.0 mi South 20.7 mph 25.3 mph N/A   Clear
12:55 PM 62.6 °F - 30.2 °F 30% 30.25 in 10.0 mi South 18.4 mph 26.5 mph N/A   Clear
1:15 PM 62.6 °F - 30.2 °F 30% 30.23 in 10.0 mi South 21.9 mph 26.5 mph N/A   Clear
1:35 PM 64.4 °F - 30.2 °F 28% 30.23 in 10.0 mi SSE 19.6 mph 26.5 mph N/A   Clear
1:55 PM 64.4 °F - 30.2 °F 28% 30.22 in 10.0 mi South 23.0 mph 26.5 mph N/A   Clear
2:15 PM 64.4 °F - 32.0 °F 30% 30.21 in 10.0 mi South 18.4 mph 26.5 mph N/A   Clear
2:35 PM 66.2 °F - 32.0 °F 28% 30.20 in 10.0 mi South 20.7 mph 26.5 mph N/A   Clear
2:55 PM 68.0 °F - 32.0 °F 26% 30.18 in 10.0 mi South 23.0 mph 27.6 mph N/A   Clear
3:15 PM 68.0 °F - 32.0 °F 26% 30.16 in 10.0 mi SSE 23.0 mph 26.5 mph N/A   Clear
3:35 PM 68.0 °F - 32.0 °F 26% 30.15 in 10.0 mi South 19.6 mph 28.8 mph N/A   Clear
3:55 PM 68.0 °F - 32.0 °F 26% 30.13 in 10.0 mi South 19.6 mph 28.8 mph N/A   Clear
4:15 PM 68.0 °F - 32.0 °F 26% 30.12 in 10.0 mi South 25.3 mph - N/A   Clear
4:35 PM 68.0 °F - 33.8 °F 28% 30.11 in 10.0 mi South 27.6 mph 31.1 mph N/A   Clear
5:15 PM 68.0 °F - 35.6 °F 30% 30.11 in 10.0 mi South 19.6 mph 28.8 mph N/A   Clear
5:35 PM 68.0 °F - 35.6 °F 30% 30.10 in 10.0 mi South 18.4 mph 26.5 mph N/A   Clear
5:55 PM 68.0 °F - 35.6 °F 30% 30.10 in 10.0 mi South 18.4 mph 26.5 mph N/A   Clear
6:15 PM 68.0 °F - 35.6 °F 30% 30.10 in 10.0 mi South 19.6 mph 28.8 mph N/A   Clear
6:35 PM 68.0 °F - 35.6 °F 30% 30.11 in 10.0 mi South 18.4 mph - N/A   Clear
6:55 PM 66.2 °F - 35.6 °F 32% 30.11 in 10.0 mi South 17.3 mph 21.9 mph N/A   Clear
7:15 PM 64.4 °F - 35.6 °F 34% 30.12 in 10.0 mi South 16.1 mph 21.9 mph N/A   Clear
7:35 PM 64.4 °F - 35.6 °F 34% 30.12 in 10.0 mi South 11.5 mph - N/A   Clear
7:55 PM 60.8 °F - 37.4 °F 42% 30.11 in 10.0 mi South 10.4 mph - N/A   Clear
8:15 PM 59.0 °F - 37.4 °F 45% 30.12 in 10.0 mi South 6.9 mph - N/A   Clear
8:35 PM 55.4 °F - 37.4 °F 51% 30.13 in 10.0 mi SSE 5.8 mph - N/A   Clear
8:55 PM 53.6 °F - 37.4 °F 54% 30.13 in 10.0 mi SE 6.9 mph - N/A   Clear
9:15 PM 53.6 °F - 37.4 °F 54% 30.14 in 10.0 mi SE 6.9 mph - N/A   Clear
9:35 PM 53.6 °F - 37.4 °F 54% 30.15 in 10.0 mi SE 5.8 mph - N/A   Clear
9:55 PM 51.8 °F - 37.4 °F 58% 30.16 in 10.0 mi ESE 6.9 mph - N/A   Clear
10:15 PM 51.8 °F - 37.4 °F 58% 30.16 in 10.0 mi SE 6.9 mph - N/A   Clear
10:35 PM 51.8 °F - 37.4 °F 58% 30.17 in 10.0 mi SE 5.8 mph - N/A   Clear
10:55 PM 51.8 °F - 37.4 °F 58% 30.17 in 10.0 mi SE 5.8 mph - N/A   Clear
11:15 PM 50.0 °F - 37.4 °F 62% 30.17 in 10.0 mi SE 5.8 mph - N/A   Clear
11:35 PM 50.0 °F - 37.4 °F 62% 30.16 in 10.0 mi Calm Calm - N/A   Clear